Time,TemperatureF,DewpointF,PressureIn,WindDirection,WindDirectionDegrees,WindSpeedMPH,WindSpeedGustMPH,Humidity,HourlyPrecipIn,Conditions,Clouds,dailyrainin,SoftwareType,DateUTC
2013-02-05 00:00:00,66.0,64.8,29.89,South,176,2.0,6.0,96,0.00,,---,0.00,VWS V14.01,2013-02-05 06:00:00,
2013-02-05 00:05:00,66.0,64.8,29.89,SW,222,2.0,4.0,96,0.00,,---,0.00,VWS V14.01,2013-02-05 06:05:00,
2013-02-05 00:10:00,66.0,65.1,29.89,SSE,149,1.0,4.0,97,0.00,,---,0.00,VWS V14.01,2013-02-05 06:10:00,
2013-02-05 00:15:00,66.0,65.1,29.89,SSW,200,1.0,4.0,97,0.00,,---,0.00,VWS V14.01,2013-02-05 06:15:00,
2013-02-05 00:20:00,65.9,65.0,29.89,WSW,239,1.0,5.0,97,0.00,,---,0.00,VWS V14.01,2013-02-05 06:20:00,
2013-02-05 00:25:00,65.9,65.0,29.89,SW,236,3.0,5.0,97,0.00,,---,0.00,VWS V14.01,2013-02-05 06:25:00,
2013-02-05 00:30:00,65.9,65.0,29.88,SE,145,2.0,5.0,97,0.00,,---,0.00,VWS V14.01,2013-02-05 06:30:00,
2013-02-05 00:35:00,65.9,65.0,29.88,SE,139,1.0,5.0,97,0.00,,---,0.00,VWS V14.01,2013-02-05 06:35:00,
2013-02-05 00:40:00,65.9,65.0,29.88,South,185,1.0,5.0,97,0.00,,---,0.00,VWS V14.01,2013-02-05 06:40:00,
2013-02-05 00:45:00,65.9,65.0,29.88,SE,146,3.0,5.0,97,0.00,,---,0.00,VWS V14.01,2013-02-05 06:45:00,
2013-02-05 00:50:00,65.9,65.0,29.88,SW,215,3.0,5.0,97,0.00,,---,0.00,VWS V14.01,2013-02-05 06:50:00,
2013-02-05 00:55:00,66.0,65.1,29.88,South,186,3.0,6.0,97,0.00,,---,0.00,VWS V14.01,2013-02-05 06:55:00,
2013-02-05 01:00:00,65.9,65.0,29.88,SSE,167,4.0,7.0,97,0.00,,---,0.00,VWS V14.01,2013-02-05 07:00:00,
2013-02-05 01:05:00,65.9,65.0,29.88,SSE,154,1.0,4.0,97,0.00,,---,0.00,VWS V14.01,2013-02-05 07:05:00,
2013-02-05 01:10:00,65.8,64.9,29.88,SW,226,1.0,4.0,97,0.00,,---,0.00,VWS V14.01,2013-02-05 07:10:00,
2013-02-05 01:15:00,65.8,64.9,29.88,WSW,250,4.0,5.0,97,0.00,,---,0.00,VWS V14.01,2013-02-05 07:15:00,
2013-02-05 01:20:00,65.7,64.8,29.88,SW,226,1.0,5.0,97,0.00,,---,0.00,VWS V14.01,2013-02-05 07:20:00,
2013-02-05 01:25:00,65.7,64.8,29.88,WSW,256,1.0,5.0,97,0.00,,---,0.00,VWS V14.01,2013-02-05 07:25:00,
2013-02-05 01:30:00,65.7,64.8,29.88,SSW,195,3.0,5.0,97,0.00,,---,0.00,VWS V14.01,2013-02-05 07:30:00,
2013-02-05 01:35:00,65.7,64.8,29.88,WSW,240,1.0,5.0,97,0.00,,---,0.00,VWS V14.01,2013-02-05 07:35:00,
2013-02-05 01:40:00,65.7,64.8,29.88,SSW,193,1.0,5.0,97,0.00,,---,0.00,VWS V14.01,2013-02-05 07:40:00,
2013-02-05 01:45:00,65.8,64.9,29.88,SW,219,1.0,5.0,97,0.00,,---,0.00,VWS V14.01,2013-02-05 07:45:00,
2013-02-05 01:50:00,65.8,64.9,29.88,SW,225,1.0,5.0,97,0.00,,---,0.00,VWS V14.01,2013-02-05 07:50:00,
2013-02-05 01:55:00,65.7,64.8,29.88,WSW,240,0.0,5.0,97,0.00,,---,0.00,VWS V14.01,2013-02-05 07:55:00,
2013-02-05 02:00:00,65.7,64.8,29.88,West,259,1.0,5.0,97,0.00,,---,0.00,VWS V14.01,2013-02-05 08:00:00,
2013-02-05 02:05:00,65.6,64.7,29.88,South,181,2.0,3.0,97,0.00,,---,0.00,VWS V14.01,2013-02-05 08:05:00,
2013-02-05 02:10:00,65.6,64.7,29.87,South,185,1.0,4.0,97,0.00,,---,0.00,VWS V14.01,2013-02-05 08:10:00,
2013-02-05 02:15:00,65.7,64.8,29.87,SSE,156,1.0,5.0,97,0.00,,---,0.00,VWS V14.01,2013-02-05 08:15:00,
2013-02-05 02:20:00,65.6,64.7,29.87,SSW,193,3.0,5.0,97,0.00,,---,0.00,VWS V14.01,2013-02-05 08:20:00,
2013-02-05 02:25:00,65.7,64.8,29.87,SSW,208,3.0,6.0,97,0.00,,---,0.00,VWS V14.01,2013-02-05 08:25:00,
2013-02-05 02:30:00,65.7,64.8,29.87,SSW,210,2.0,6.0,97,0.00,,---,0.00,VWS V14.01,2013-02-05 08:30:00,
2013-02-05 02:35:00,65.8,64.9,29.87,West,267,2.0,6.0,97,0.00,,---,0.00,VWS V14.01,2013-02-05 08:35:00,
2013-02-05 02:40:00,65.8,64.9,29.87,South,181,4.0,6.0,97,0.01,,---,0.01,VWS V14.01,2013-02-05 08:40:00,
2013-02-05 02:45:00,65.7,64.8,29.87,SSW,193,3.0,6.0,97,0.01,,---,0.01,VWS V14.01,2013-02-05 08:45:00,
2013-02-05 02:50:00,65.7,64.8,29.87,SW,229,4.0,6.0,97,0.01,,---,0.01,VWS V14.01,2013-02-05 08:50:00,
2013-02-05 02:55:00,65.7,64.8,29.87,SSW,204,2.0,6.0,97,0.01,,---,0.01,VWS V14.01,2013-02-05 08:55:00,
2013-02-05 03:00:00,65.6,64.7,29.87,SSW,207,1.0,6.0,97,0.01,,---,0.01,VWS V14.01,2013-02-05 09:00:00,
2013-02-05 03:05:00,65.6,64.7,29.87,South,191,3.0,4.0,97,0.01,,---,0.01,VWS V14.01,2013-02-05 09:05:00,
2013-02-05 03:10:00,65.5,64.6,29.87,South,190,2.0,5.0,97,0.01,,---,0.01,VWS V14.01,2013-02-05 09:10:00,
2013-02-05 03:15:00,65.4,64.5,29.87,SSW,197,2.0,5.0,97,0.01,,---,0.01,VWS V14.01,2013-02-05 09:15:00,
2013-02-05 03:20:00,65.4,64.5,29.87,South,183,2.0,5.0,97,0.01,,---,0.01,VWS V14.01,2013-02-05 09:20:00,
2013-02-05 03:25:00,65.4,64.5,29.87,SSW,201,4.0,5.0,97,0.01,,---,0.01,VWS V14.01,2013-02-05 09:25:00,
2013-02-05 03:30:00,65.4,64.8,29.87,SSW,208,3.0,5.0,98,0.01,,---,0.01,VWS V14.01,2013-02-05 09:30:00,
2013-02-05 03:35:00,65.4,64.8,29.87,SSW,203,2.0,5.0,98,0.01,,---,0.01,VWS V14.01,2013-02-05 09:35:00,
2013-02-05 03:40:00,65.3,64.7,29.87,South,191,0.0,5.0,98,0.01,,---,0.01,VWS V14.01,2013-02-05 09:40:00,
2013-02-05 03:45:00,65.3,64.4,29.87,South,180,2.0,6.0,97,0.01,,---,0.01,VWS V14.01,2013-02-05 09:45:00,
2013-02-05 03:50:00,65.3,64.7,29.87,SW,226,3.0,6.0,98,0.01,,---,0.01,VWS V14.01,2013-02-05 09:50:00,
2013-02-05 03:54:00,65.2,64.6,29.87,SW,232,3.0,6.0,98,0.01,,---,0.01,VWS V14.01,2013-02-05 09:54:00,
2013-02-05 03:59:00,65.3,64.7,29.88,SSW,207,3.0,6.0,98,0.01,,---,0.01,VWS V14.01,2013-02-05 09:59:00,
2013-02-05 04:04:00,65.3,64.7,29.88,WSW,245,1.0,5.0,98,0.00,,---,0.01,VWS V14.01,2013-02-05 10:04:00,
2013-02-05 04:09:00,65.2,64.3,29.88,SSE,160,1.0,5.0,97,0.00,,---,0.01,VWS V14.01,2013-02-05 10:09:00,
2013-02-05 04:14:00,65.1,64.2,29.88,SW,220,5.0,6.0,97,0.00,,---,0.01,VWS V14.01,2013-02-05 10:14:00,
2013-02-05 04:19:00,65.1,64.2,29.88,SSW,213,1.0,6.0,97,0.00,,---,0.01,VWS V14.01,2013-02-05 10:19:00,
2013-02-05 04:24:00,65.1,64.5,29.88,WSW,253,0.0,6.0,98,0.00,,---,0.01,VWS V14.01,2013-02-05 10:24:00,
2013-02-05 04:30:00,65.0,64.4,29.88,SW,218,2.0,6.0,98,0.00,,---,0.01,VWS V14.01,2013-02-05 10:30:00,
2013-02-05 04:35:00,65.1,64.5,29.88,SSW,197,1.0,6.0,98,0.00,,---,0.01,VWS V14.01,2013-02-05 10:35:00,
2013-02-05 04:39:00,65.0,64.4,29.88,SSW,201,2.0,6.0,98,0.00,,---,0.01,VWS V14.01,2013-02-05 10:39:00,
2013-02-05 04:45:00,65.0,64.4,29.88,SSW,197,3.0,6.0,98,0.00,,---,0.01,VWS V14.01,2013-02-05 10:45:00,
2013-02-05 04:50:00,65.0,64.4,29.88,West,267,1.0,6.0,98,0.00,,---,0.01,VWS V14.01,2013-02-05 10:50:00,
2013-02-05 04:55:00,65.0,64.4,29.88,WSW,239,2.0,6.0,98,0.00,,---,0.01,VWS V14.01,2013-02-05 10:55:00,
2013-02-05 05:00:00,65.0,64.4,29.89,SW,215,3.0,6.0,98,0.00,,---,0.01,VWS V14.01,2013-02-05 11:00:00,
2013-02-05 05:05:00,64.9,64.3,29.89,SW,219,1.0,4.0,98,0.00,,---,0.01,VWS V14.01,2013-02-05 11:05:00,
2013-02-05 05:10:00,64.9,64.3,29.89,South,186,2.0,4.0,98,0.00,,---,0.01,VWS V14.01,2013-02-05 11:10:00,
2013-02-05 05:15:00,64.9,64.3,29.89,SSW,209,3.0,4.0,98,0.00,,---,0.01,VWS V14.01,2013-02-05 11:15:00,
2013-02-05 05:20:00,64.9,64.3,29.89,WSW,239,1.0,4.0,98,0.00,,---,0.01,VWS V14.01,2013-02-05 11:20:00,
2013-02-05 05:25:00,65.0,64.4,29.89,SSE,153,1.0,4.0,98,0.00,,---,0.01,VWS V14.01,2013-02-05 11:25:00,
2013-02-05 05:30:00,64.9,64.3,29.89,South,179,2.0,4.0,98,0.00,,---,0.01,VWS V14.01,2013-02-05 11:30:00,
2013-02-05 05:35:00,64.9,64.3,29.90,SSW,203,0.0,4.0,98,0.00,,---,0.01,VWS V14.01,2013-02-05 11:35:00,
2013-02-05 05:40:00,64.8,64.2,29.90,SW,218,0.0,4.0,98,0.00,,---,0.01,VWS V14.01,2013-02-05 11:40:00,
2013-02-05 05:45:00,64.7,64.1,29.90,SW,221,0.0,4.0,98,0.00,,---,0.01,VWS V14.01,2013-02-05 11:45:00,
2013-02-05 05:50:00,64.7,64.1,29.90,SSW,209,1.0,4.0,98,0.00,,---,0.01,VWS V14.01,2013-02-05 11:50:00,
2013-02-05 05:55:00,64.6,64.0,29.90,SW,231,1.0,4.0,98,0.00,,---,0.01,VWS V14.01,2013-02-05 11:55:00,
2013-02-05 06:00:00,64.6,64.0,29.91,SW,215,1.0,4.0,98,0.00,,---,0.01,VWS V14.01,2013-02-05 12:00:00,
2013-02-05 06:05:00,64.5,63.9,29.91,SW,233,0.0,2.0,98,0.00,,---,0.01,VWS V14.01,2013-02-05 12:05:00,
2013-02-05 06:10:00,64.6,64.0,29.91,South,185,2.0,4.0,98,0.00,,---,0.01,VWS V14.01,2013-02-05 12:10:00,
2013-02-05 06:15:00,64.6,64.0,29.91,SSW,210,0.0,4.0,98,0.00,,---,0.01,VWS V14.01,2013-02-05 12:15:00,
2013-02-05 06:20:00,64.6,64.0,29.91,SW,218,1.0,4.0,98,0.00,,---,0.01,VWS V14.01,2013-02-05 12:20:00,
2013-02-05 06:25:00,64.5,63.9,29.91,South,191,0.0,4.0,98,0.00,,---,0.01,VWS V14.01,2013-02-05 12:25:00,
2013-02-05 06:30:00,64.5,63.9,29.91,SW,224,1.0,4.0,98,0.00,,---,0.01,VWS V14.01,2013-02-05 12:30:00,
2013-02-05 06:35:00,64.5,63.9,29.91,SSE,159,1.0,4.0,98,0.00,,---,0.01,VWS V14.01,2013-02-05 12:35:00,
2013-02-05 06:40:00,64.5,63.9,29.91,South,184,2.0,4.0,98,0.00,,---,0.01,VWS V14.01,2013-02-05 12:40:00,
2013-02-05 06:45:00,64.4,63.8,29.91,South,188,0.0,4.0,98,0.00,,---,0.01,VWS V14.01,2013-02-05 12:45:00,
2013-02-05 06:50:00,64.4,63.8,29.91,SSW,208,1.0,4.0,98,0.00,,---,0.01,VWS V14.01,2013-02-05 12:50:00,
2013-02-05 06:55:00,64.3,63.7,29.91,WSW,249,1.0,4.0,98,0.00,,---,0.01,VWS V14.01,2013-02-05 12:55:00,
2013-02-05 07:00:00,64.3,63.7,29.91,SW,216,2.0,4.0,98,0.00,,---,0.01,VWS V14.01,2013-02-05 13:00:00,
2013-02-05 07:05:00,64.3,63.7,29.91,SSW,193,3.0,3.0,98,0.00,,---,0.01,VWS V14.01,2013-02-05 13:05:00,
2013-02-05 07:10:00,64.3,63.7,29.92,SSW,200,3.0,4.0,98,0.00,,---,0.01,VWS V14.01,2013-02-05 13:10:00,
2013-02-05 07:15:00,64.4,63.8,29.92,SW,228,1.0,4.0,98,0.00,,---,0.01,VWS V14.01,2013-02-05 13:15:00,
2013-02-05 07:20:00,64.4,63.8,29.92,South,176,2.0,4.0,98,0.00,,---,0.01,VWS V14.01,2013-02-05 13:20:00,
2013-02-05 07:25:00,64.5,63.9,29.92,South,173,1.0,4.0,98,0.00,,---,0.01,VWS V14.01,2013-02-05 13:25:00,
2013-02-05 07:30:00,64.6,64.0,29.92,SSW,198,2.0,4.0,98,0.00,,---,0.01,VWS V14.01,2013-02-05 13:30:00,
2013-02-05 07:35:00,64.7,64.1,29.93,SSW,201,2.0,4.0,98,0.00,,---,0.01,VWS V14.01,2013-02-05 13:35:00,
2013-02-05 07:40:00,64.8,64.2,29.92,South,191,2.0,4.0,98,0.00,,---,0.01,VWS V14.01,2013-02-05 13:40:00,
2013-02-05 07:45:00,64.9,64.3,29.93,South,183,2.0,4.0,98,0.00,,---,0.01,VWS V14.01,2013-02-05 13:45:00,
2013-02-05 07:50:00,65.1,64.5,29.93,South,177,3.0,5.0,98,0.00,,---,0.01,VWS V14.01,2013-02-05 13:50:00,
2013-02-05 07:55:00,65.2,64.6,29.93,SW,236,2.0,5.0,98,0.00,,---,0.01,VWS V14.01,2013-02-05 13:55:00,
2013-02-05 08:00:00,65.5,64.9,29.93,SW,222,3.0,5.0,98,0.00,,---,0.01,VWS V14.01,2013-02-05 14:00:00,
2013-02-05 08:05:00,65.6,65.0,29.93,SSW,209,4.0,5.0,98,0.00,,---,0.01,VWS V14.01,2013-02-05 14:05:00,
2013-02-05 08:10:00,65.8,64.9,29.93,WSW,248,1.0,5.0,97,0.00,,---,0.01,VWS V14.01,2013-02-05 14:10:00,
2013-02-05 08:14:00,66.0,65.1,29.94,South,181,1.0,5.0,97,0.00,,---,0.01,VWS V14.01,2013-02-05 14:14:00,
2013-02-05 08:19:00,66.2,65.3,29.94,SE,124,0.0,5.0,97,0.00,,---,0.01,VWS V14.01,2013-02-05 14:19:00,
2013-02-05 08:24:00,66.4,65.5,29.94,WSW,242,3.0,5.0,97,0.00,,---,0.01,VWS V14.01,2013-02-05 14:24:00,
2013-02-05 08:29:00,66.5,65.6,29.94,SSE,163,1.0,5.0,97,0.00,,---,0.01,VWS V14.01,2013-02-05 14:29:00,
2013-02-05 08:34:00,66.7,65.8,29.94,SW,219,0.0,5.0,97,0.00,,---,0.01,VWS V14.01,2013-02-05 14:34:00,
2013-02-05 08:39:00,66.8,65.9,29.94,SW,218,3.0,5.0,97,0.00,,---,0.01,VWS V14.01,2013-02-05 14:39:00,
2013-02-05 08:44:00,66.9,66.0,29.94,WSW,248,2.0,7.0,97,0.00,,---,0.01,VWS V14.01,2013-02-05 14:44:00,
2013-02-05 08:49:00,67.1,66.2,29.94,West,260,3.0,7.0,97,0.00,,---,0.01,VWS V14.01,2013-02-05 14:49:00,
2013-02-05 08:54:00,67.3,66.4,29.94,SSW,210,0.0,7.0,97,0.00,,---,0.01,VWS V14.01,2013-02-05 14:54:00,
2013-02-05 08:59:00,67.5,66.3,29.94,SW,231,5.0,7.0,96,0.00,,---,0.01,VWS V14.01,2013-02-05 14:59:00,
2013-02-05 09:04:00,67.6,66.4,29.94,SW,231,7.0,7.0,96,0.00,,---,0.01,VWS V14.01,2013-02-05 15:04:00,
2013-02-05 09:09:00,67.8,66.6,29.95,WNW,284,2.0,7.0,96,0.00,,---,0.01,VWS V14.01,2013-02-05 15:09:00,
2013-02-05 09:14:00,68.0,66.8,29.95,WSW,240,2.0,7.0,96,0.00,,---,0.01,VWS V14.01,2013-02-05 15:14:00,
2013-02-05 09:19:00,68.3,67.1,29.95,SW,231,1.0,7.0,96,0.00,,---,0.01,VWS V14.01,2013-02-05 15:19:00,
2013-02-05 09:24:00,68.5,67.0,29.96,SW,222,3.0,7.0,95,0.00,,---,0.01,VWS V14.01,2013-02-05 15:24:00,
2013-02-05 09:29:00,68.6,67.1,29.96,ESE,121,1.0,8.0,95,0.00,,---,0.01,VWS V14.01,2013-02-05 15:29:00,
2013-02-05 09:35:00,68.7,67.2,29.96,SSW,204,5.0,8.0,95,0.00,,---,0.01,VWS V14.01,2013-02-05 15:35:00,
2013-02-05 09:40:00,68.8,67.0,29.96,WSW,252,2.0,8.0,94,0.00,,---,0.01,VWS V14.01,2013-02-05 15:40:00,
2013-02-05 09:45:00,68.6,66.8,29.97,SW,215,3.0,9.0,94,0.00,,---,0.01,VWS V14.01,2013-02-05 15:45:00,
2013-02-05 09:50:00,68.6,66.8,29.97,WSW,246,5.0,9.0,94,0.00,,---,0.01,VWS V14.01,2013-02-05 15:50:00,
2013-02-05 09:55:00,68.5,67.0,29.97,SW,228,1.0,9.0,95,0.00,,---,0.01,VWS V14.01,2013-02-05 15:55:00,
2013-02-05 10:00:00,68.5,67.0,29.98,WSW,246,8.0,10.0,95,0.00,,---,0.01,VWS V14.01,2013-02-05 16:00:00,
2013-02-05 10:05:00,68.4,66.9,29.98,WSW,238,6.0,9.0,95,0.00,,---,0.01,VWS V14.01,2013-02-05 16:05:00,
2013-02-05 10:10:00,68.5,67.0,29.98,West,274,2.0,9.0,95,0.00,,---,0.01,VWS V14.01,2013-02-05 16:10:00,
2013-02-05 10:15:00,68.8,67.3,29.98,West,274,5.0,9.0,95,0.00,,---,0.01,VWS V14.01,2013-02-05 16:15:00,
2013-02-05 10:20:00,68.9,67.4,29.98,WSW,239,4.0,9.0,95,0.00,,---,0.01,VWS V14.01,2013-02-05 16:20:00,
2013-02-05 10:25:00,69.3,67.8,29.98,WSW,238,3.0,9.0,95,0.00,,---,0.01,VWS V14.01,2013-02-05 16:25:00,
2013-02-05 10:30:00,69.6,67.8,29.98,WSW,238,2.0,9.0,94,0.00,,---,0.01,VWS V14.01,2013-02-05 16:30:00,
2013-02-05 10:35:00,69.6,67.5,29.98,WSW,246,7.0,9.0,93,0.00,,---,0.01,VWS V14.01,2013-02-05 16:35:00,
2013-02-05 10:40:00,69.6,67.2,29.98,WSW,252,5.0,11.0,92,0.00,,---,0.01,VWS V14.01,2013-02-05 16:40:00,
2013-02-05 10:45:00,69.8,67.4,29.99,SSW,199,4.0,11.0,92,0.00,,---,0.01,VWS V14.01,2013-02-05 16:45:00,
2013-02-05 10:50:00,70.0,67.3,29.98,WSW,253,3.0,11.0,91,0.00,,---,0.01,VWS V14.01,2013-02-05 16:50:00,
2013-02-05 10:55:00,70.4,68.0,29.98,WSW,250,7.0,11.0,92,0.00,,---,0.01,VWS V14.01,2013-02-05 16:55:00,
2013-02-05 11:00:00,70.5,67.8,29.98,SW,227,1.0,11.0,91,0.00,,---,0.01,VWS V14.01,2013-02-05 17:00:00,
2013-02-05 11:05:00,70.9,67.8,29.98,SW,219,4.0,6.0,90,0.00,,---,0.01,VWS V14.01,2013-02-05 17:05:00,
2013-02-05 11:10:00,70.9,67.5,29.98,SW,233,3.0,8.0,89,0.00,,---,0.01,VWS V14.01,2013-02-05 17:10:00,
2013-02-05 11:15:00,70.7,67.6,29.98,WSW,239,1.0,8.0,90,0.00,,---,0.01,VWS V14.01,2013-02-05 17:15:00,
2013-02-05 11:20:00,70.9,67.5,29.98,SSE,165,0.0,8.0,89,0.00,,---,0.01,VWS V14.01,2013-02-05 17:20:00,
2013-02-05 11:25:00,71.2,67.8,29.98,SW,218,1.0,8.0,89,0.00,,---,0.01,VWS V14.01,2013-02-05 17:25:00,
2013-02-05 11:30:00,71.4,68.0,29.98,SSW,207,4.0,8.0,89,0.00,,---,0.01,VWS V14.01,2013-02-05 17:30:00,
2013-02-05 11:35:00,71.4,68.0,29.97,West,260,2.0,8.0,89,0.00,,---,0.01,VWS V14.01,2013-02-05 17:35:00,
2013-02-05 11:40:00,71.8,68.1,29.97,ESE,105,0.0,8.0,88,0.00,,---,0.01,VWS V14.01,2013-02-05 17:40:00,
2013-02-05 11:45:00,71.8,67.7,29.97,SSW,210,3.0,8.0,87,0.00,,---,0.01,VWS V14.01,2013-02-05 17:45:00,
2013-02-05 11:50:00,72.0,68.3,29.97,SW,214,0.0,8.0,88,0.00,,---,0.01,VWS V14.01,2013-02-05 17:50:00,
2013-02-05 11:55:00,72.6,68.2,29.96,SSE,159,6.0,8.0,86,0.00,,---,0.01,VWS V14.01,2013-02-05 17:55:00,
2013-02-05 12:00:00,72.4,67.6,29.96,South,191,6.0,10.0,85,0.00,,---,0.01,VWS V14.01,2013-02-05 18:00:00,
2013-02-05 12:05:00,72.2,67.8,29.96,SSW,193,4.0,8.0,86,0.00,,---,0.01,VWS V14.01,2013-02-05 18:05:00,
2013-02-05 12:10:00,71.9,67.5,29.96,South,177,4.0,9.0,86,0.00,,---,0.01,VWS V14.01,2013-02-05 18:10:00,
2013-02-05 12:15:00,71.7,67.6,29.95,SSW,198,2.0,9.0,87,0.00,,---,0.01,VWS V14.01,2013-02-05 18:15:00,
2013-02-05 12:20:00,71.6,67.9,29.95,SW,218,3.0,9.0,88,0.00,,---,0.01,VWS V14.01,2013-02-05 18:20:00,
2013-02-05 12:25:00,71.8,67.4,29.95,SE,146,6.0,9.0,86,0.00,,---,0.01,VWS V14.01,2013-02-05 18:25:00,
2013-02-05 12:30:00,72.0,67.6,29.95,SSE,157,7.0,9.0,86,0.00,,---,0.01,VWS V14.01,2013-02-05 18:30:00,
2013-02-05 12:35:00,71.7,67.3,29.95,SSE,160,5.0,9.0,86,0.00,,---,0.01,VWS V14.01,2013-02-05 18:35:00,
2013-02-05 12:40:00,72.1,67.7,29.94,SE,132,3.0,9.0,86,0.00,,---,0.01,VWS V14.01,2013-02-05 18:40:00,
2013-02-05 12:45:00,72.6,67.8,29.95,South,172,2.0,9.0,85,0.00,,---,0.01,VWS V14.01,2013-02-05 18:45:00,
2013-02-05 12:50:00,73.1,68.3,29.94,SE,133,1.0,9.0,85,0.00,,---,0.01,VWS V14.01,2013-02-05 18:50:00,
2013-02-05 12:55:00,73.1,68.0,29.94,ESE,117,3.0,9.0,84,0.00,,---,0.01,VWS V14.01,2013-02-05 18:55:00,
2013-02-05 13:00:00,73.4,68.3,29.94,SE,143,4.0,9.0,84,0.00,,---,0.01,VWS V14.01,2013-02-05 19:00:00,
2013-02-05 13:05:00,73.9,68.4,29.94,SSW,197,2.0,5.0,83,0.00,,---,0.01,VWS V14.01,2013-02-05 19:05:00,
2013-02-05 13:10:00,74.4,68.6,29.94,NE,53,5.0,5.0,82,0.00,,---,0.01,VWS V14.01,2013-02-05 19:10:00,
2013-02-05 13:15:00,74.9,68.7,29.93,East,79,7.0,9.0,81,0.00,,---,0.01,VWS V14.01,2013-02-05 19:15:00,
2013-02-05 13:20:00,73.7,68.2,29.93,East,85,3.0,9.0,83,0.00,,---,0.01,VWS V14.01,2013-02-05 19:20:00,
2013-02-05 13:25:00,73.1,68.0,29.93,ESE,108,6.0,9.0,84,0.00,,---,0.01,VWS V14.01,2013-02-05 19:25:00,
2013-02-05 13:30:00,73.0,67.9,29.93,East,92,2.0,9.0,84,0.00,,---,0.01,VWS V14.01,2013-02-05 19:30:00,
2013-02-05 13:35:00,72.8,67.7,29.93,ENE,68,6.0,9.0,84,0.00,,---,0.01,VWS V14.01,2013-02-05 19:35:00,
2013-02-05 13:40:00,72.4,67.3,29.92,ENE,62,4.0,9.0,84,0.00,,---,0.01,VWS V14.01,2013-02-05 19:40:00,
2013-02-05 13:45:00,72.3,67.5,29.92,ENE,66,4.0,9.0,85,0.00,,---,0.01,VWS V14.01,2013-02-05 19:45:00,
2013-02-05 13:50:00,72.8,67.3,29.93,East,94,4.0,9.0,83,0.00,,---,0.01,VWS V14.01,2013-02-05 19:50:00,
2013-02-05 13:55:00,72.6,67.5,29.92,East,93,5.0,9.0,84,0.00,,---,0.01,VWS V14.01,2013-02-05 19:55:00,
2013-02-05 14:00:00,72.7,67.2,29.92,ENE,62,7.0,9.0,83,0.00,,---,0.01,VWS V14.01,2013-02-05 20:00:00,
2013-02-05 14:05:00,72.3,67.2,29.92,ENE,59,5.0,9.0,84,0.00,,---,0.01,VWS V14.01,2013-02-05 20:05:00,
2013-02-05 14:10:00,71.9,66.8,29.92,ENE,57,7.0,9.0,84,0.00,,---,0.01,VWS V14.01,2013-02-05 20:10:00,
2013-02-05 14:15:00,71.8,67.1,29.92,NE,53,6.0,9.0,85,0.00,,---,0.01,VWS V14.01,2013-02-05 20:15:00,
2013-02-05 14:20:00,71.6,66.9,29.92,East,82,6.0,9.0,85,0.00,,---,0.01,VWS V14.01,2013-02-05 20:20:00,
2013-02-05 14:25:00,71.8,66.7,29.92,ENE,68,4.0,9.0,84,0.00,,---,0.01,VWS V14.01,2013-02-05 20:25:00,
2013-02-05 14:30:00,72.3,67.2,29.91,ENE,71,5.0,9.0,84,0.00,,---,0.01,VWS V14.01,2013-02-05 20:30:00,
2013-02-05 14:35:00,72.8,67.3,29.92,ESE,120,6.0,9.0,83,0.00,,---,0.01,VWS V14.01,2013-02-05 20:35:00,
2013-02-05 14:40:00,72.0,67.2,29.91,ESE,117,7.0,9.0,85,0.00,,---,0.01,VWS V14.01,2013-02-05 20:40:00,
2013-02-05 14:45:00,71.6,66.9,29.91,ESE,117,4.0,9.0,85,0.00,,---,0.01,VWS V14.01,2013-02-05 20:45:00,
2013-02-05 14:50:00,72.0,67.2,29.91,ESE,110,6.0,9.0,85,0.00,,---,0.01,VWS V14.01,2013-02-05 20:50:00,
2013-02-05 14:55:00,71.6,66.9,29.91,East,96,6.0,9.0,85,0.00,,---,0.01,VWS V14.01,2013-02-05 20:55:00,
2013-02-05 15:00:00,71.5,67.1,29.91,East,86,7.0,9.0,86,0.00,,---,0.01,VWS V14.01,2013-02-05 21:00:00,
2013-02-05 15:05:00,70.7,67.0,29.91,ESE,112,6.0,8.0,88,0.00,,---,0.01,VWS V14.01,2013-02-05 21:05:00,
2013-02-05 15:10:00,70.4,67.3,29.90,East,88,6.0,9.0,90,0.00,,---,0.01,VWS V14.01,2013-02-05 21:10:00,
2013-02-05 15:15:00,70.9,67.8,29.90,SE,132,5.0,9.0,90,0.00,,---,0.01,VWS V14.01,2013-02-05 21:15:00,
2013-02-05 15:20:00,71.3,67.6,29.90,ESE,116,5.0,9.0,88,0.00,,---,0.01,VWS V14.01,2013-02-05 21:20:00,
2013-02-05 15:25:00,71.1,67.4,29.90,ESE,118,8.0,9.0,88,0.00,,---,0.01,VWS V14.01,2013-02-05 21:25:00,
2013-02-05 15:30:00,70.6,66.9,29.90,ESE,107,8.0,10.0,88,0.00,,---,0.01,VWS V14.01,2013-02-05 21:30:00,
2013-02-05 15:35:00,70.5,67.1,29.90,ESE,111,8.0,11.0,89,0.00,,---,0.01,VWS V14.01,2013-02-05 21:35:00,
2013-02-05 15:40:00,70.6,67.2,29.90,SE,130,5.0,11.0,89,0.00,,---,0.01,VWS V14.01,2013-02-05 21:40:00,
2013-02-05 15:45:00,70.5,67.1,29.90,ESE,102,7.0,11.0,89,0.00,,---,0.01,VWS V14.01,2013-02-05 21:45:00,
2013-02-05 15:50:00,70.8,67.4,29.90,ESE,109,5.0,11.0,89,0.00,,---,0.01,VWS V14.01,2013-02-05 21:50:00,
2013-02-05 15:55:00,70.8,67.1,29.90,ENE,65,6.0,12.0,88,0.00,,---,0.01,VWS V14.01,2013-02-05 21:55:00,
2013-02-05 16:00:00,70.7,67.0,29.90,ESE,105,5.0,12.0,88,0.00,,---,0.01,VWS V14.01,2013-02-05 22:00:00,
2013-02-05 16:05:00,70.1,66.7,29.90,ENE,57,5.0,10.0,89,0.00,,---,0.01,VWS V14.01,2013-02-05 22:05:00,
2013-02-05 16:10:00,69.9,66.8,29.90,ESE,118,3.0,10.0,90,0.00,,---,0.01,VWS V14.01,2013-02-05 22:10:00,
2013-02-05 16:15:00,69.7,66.6,29.90,ESE,103,6.0,10.0,90,0.00,,---,0.01,VWS V14.01,2013-02-05 22:15:00,
2013-02-05 16:20:00,69.6,66.9,29.90,ESE,110,7.0,10.0,91,0.00,,---,0.01,VWS V14.01,2013-02-05 22:20:00,
2013-02-05 16:25:00,69.5,66.8,29.90,ESE,105,9.0,10.0,91,0.00,,---,0.01,VWS V14.01,2013-02-05 22:25:00,
2013-02-05 16:30:00,69.6,66.9,29.90,East,101,5.0,10.0,91,0.00,,---,0.01,VWS V14.01,2013-02-05 22:30:00,
2013-02-05 16:35:00,69.5,66.4,29.90,ESE,112,6.0,11.0,90,0.00,,---,0.01,VWS V14.01,2013-02-05 22:35:00,
2013-02-05 16:40:00,69.3,66.2,29.90,ESE,120,6.0,11.0,90,0.00,,---,0.01,VWS V14.01,2013-02-05 22:40:00,
2013-02-05 16:45:00,69.1,66.1,29.90,ESE,106,8.0,11.0,90,0.00,,---,0.01,VWS V14.01,2013-02-05 22:45:00,
2013-02-05 16:50:00,69.0,65.9,29.90,ESE,118,7.0,11.0,90,0.00,,---,0.01,VWS V14.01,2013-02-05 22:50:00,
2013-02-05 16:55:00,68.8,66.1,29.90,SE,126,9.0,12.0,91,0.00,,---,0.01,VWS V14.01,2013-02-05 22:55:00,
2013-02-05 17:00:00,68.7,66.3,29.90,ESE,123,9.0,12.0,92,0.00,,---,0.01,VWS V14.01,2013-02-05 23:00:00,
2013-02-05 17:05:00,68.5,66.1,29.90,ESE,123,4.0,12.0,92,0.00,,---,0.01,VWS V14.01,2013-02-05 23:05:00,
2013-02-05 17:10:00,68.5,66.1,29.90,SE,142,4.0,12.0,92,0.00,,---,0.01,VWS V14.01,2013-02-05 23:10:00,
2013-02-05 17:15:00,68.4,66.3,29.90,ESE,122,7.0,12.0,93,0.00,,---,0.01,VWS V14.01,2013-02-05 23:15:00,
2013-02-05 17:20:00,68.4,66.3,29.90,SSE,149,3.0,12.0,93,0.00,,---,0.01,VWS V14.01,2013-02-05 23:20:00,
2013-02-05 17:25:00,68.4,66.3,29.90,ESE,102,4.0,12.0,93,0.00,,---,0.01,VWS V14.01,2013-02-05 23:25:00,
2013-02-05 17:30:00,68.4,66.3,29.91,SE,141,7.0,12.0,93,0.00,,---,0.01,VWS V14.01,2013-02-05 23:30:00,
2013-02-05 17:35:00,68.6,66.5,29.91,SE,131,3.0,12.0,93,0.00,,---,0.01,VWS V14.01,2013-02-05 23:35:00,
2013-02-05 17:40:00,68.7,66.6,29.90,South,170,1.0,12.0,93,0.00,,---,0.01,VWS V14.01,2013-02-05 23:40:00,
2013-02-05 17:45:00,68.7,66.6,29.90,SE,145,3.0,12.0,93,0.00,,---,0.01,VWS V14.01,2013-02-05 23:45:00,
2013-02-05 17:50:00,68.7,66.6,29.91,ESE,121,3.0,12.0,93,0.00,,---,0.01,VWS V14.01,2013-02-05 23:50:00,
2013-02-05 17:55:00,68.7,66.6,29.91,SSW,204,9.0,12.0,93,0.00,,---,0.01,VWS V14.01,2013-02-05 23:55:00,
2013-02-05 18:00:00,68.7,66.9,29.91,South,173,6.0,12.0,94,0.00,,---,0.01,VWS V14.01,2013-02-06 00:00:00,
2013-02-05 18:05:00,68.7,66.9,29.91,SSE,159,6.0,9.0,94,0.00,,---,0.01,VWS V14.01,2013-02-06 00:05:00,
2013-02-05 18:10:00,68.6,66.8,29.91,SSE,150,6.0,10.0,94,0.00,,---,0.01,VWS V14.01,2013-02-06 00:10:00,
2013-02-05 18:15:00,68.6,66.8,29.91,SE,128,5.0,10.0,94,0.00,,---,0.01,VWS V14.01,2013-02-06 00:15:00,
2013-02-05 18:20:00,68.4,66.6,29.91,SSE,155,3.0,10.0,94,0.00,,---,0.01,VWS V14.01,2013-02-06 00:20:00,
2013-02-05 18:25:00,68.2,66.4,29.91,SSE,159,3.0,10.0,94,0.00,,---,0.01,VWS V14.01,2013-02-06 00:25:00,
2013-02-05 18:30:00,68.1,66.6,29.91,ESE,116,3.0,10.0,95,0.00,,---,0.01,VWS V14.01,2013-02-06 00:30:00,
2013-02-05 18:35:00,68.0,66.5,29.91,East,97,5.0,10.0,95,0.00,,---,0.01,VWS V14.01,2013-02-06 00:35:00,
2013-02-05 18:40:00,68.0,66.5,29.91,SSE,157,1.0,10.0,95,0.00,,---,0.01,VWS V14.01,2013-02-06 00:40:00,
2013-02-05 18:45:00,67.9,66.4,29.91,ESE,122,3.0,10.0,95,0.00,,---,0.01,VWS V14.01,2013-02-06 00:45:00,
2013-02-05 18:50:00,67.9,66.4,29.92,SE,125,1.0,10.0,95,0.00,,---,0.01,VWS V14.01,2013-02-06 00:50:00,
2013-02-05 18:55:00,67.8,66.6,29.92,SE,145,3.0,10.0,96,0.00,,---,0.01,VWS V14.01,2013-02-06 00:55:00,
2013-02-05 19:00:00,67.7,66.5,29.92,SSE,158,3.0,10.0,96,0.00,,---,0.01,VWS V14.01,2013-02-06 01:00:00,
2013-02-05 19:05:00,67.7,66.5,29.92,SSE,153,2.0,4.0,96,0.00,,---,0.01,VWS V14.01,2013-02-06 01:05:00,
2013-02-05 19:10:00,67.8,66.6,29.92,ESE,112,2.0,4.0,96,0.00,,---,0.01,VWS V14.01,2013-02-06 01:10:00,
2013-02-05 19:16:00,67.9,66.7,29.92,ESE,122,2.0,6.0,96,0.00,,---,0.01,VWS V14.01,2013-02-06 01:16:00,
2013-02-05 19:21:00,68.0,66.8,29.93,ESE,114,3.0,6.0,96,0.00,,---,0.01,VWS V14.01,2013-02-06 01:21:00,
2013-02-05 19:26:00,68.0,66.8,29.93,SE,125,2.0,6.0,96,0.00,,---,0.01,VWS V14.01,2013-02-06 01:26:00,
2013-02-05 19:31:00,67.9,66.7,29.93,ESE,111,5.0,6.0,96,0.00,,---,0.01,VWS V14.01,2013-02-06 01:31:00,
2013-02-05 19:36:00,67.9,66.7,29.92,ESE,110,5.0,8.0,96,0.00,,---,0.01,VWS V14.01,2013-02-06 01:36:00,
2013-02-05 19:41:00,67.9,66.7,29.93,SE,138,4.0,8.0,96,0.00,,---,0.01,VWS V14.01,2013-02-06 01:41:00,
2013-02-05 19:46:00,68.0,66.8,29.93,ESE,122,3.0,8.0,96,0.00,,---,0.01,VWS V14.01,2013-02-06 01:46:00,
2013-02-05 19:51:00,67.9,66.7,29.93,SE,127,3.0,8.0,96,0.00,,---,0.01,VWS V14.01,2013-02-06 01:51:00,
2013-02-05 19:56:00,67.9,66.7,29.93,ESE,118,6.0,8.0,96,0.00,,---,0.01,VWS V14.01,2013-02-06 01:56:00,
2013-02-05 20:01:00,67.9,67.0,29.93,ESE,105,7.0,8.0,97,0.00,,---,0.01,VWS V14.01,2013-02-06 02:01:00,
2013-02-05 20:06:00,67.8,66.9,29.93,ESE,108,4.0,8.0,97,0.00,,---,0.01,VWS V14.01,2013-02-06 02:06:00,
2013-02-05 20:11:00,67.8,66.9,29.93,ESE,106,5.0,8.0,97,0.00,,---,0.01,VWS V14.01,2013-02-06 02:11:00,
2013-02-05 20:16:00,67.9,67.0,29.93,SE,129,3.0,8.0,97,0.00,,---,0.01,VWS V14.01,2013-02-06 02:16:00,
2013-02-05 20:21:00,67.8,66.9,29.94,ESE,122,5.0,8.0,97,0.00,,---,0.01,VWS V14.01,2013-02-06 02:21:00,
2013-02-05 20:26:00,67.8,66.9,29.94,ESE,103,4.0,8.0,97,0.00,,---,0.01,VWS V14.01,2013-02-06 02:26:00,
2013-02-05 20:31:00,67.8,66.9,29.94,East,101,5.0,8.0,97,0.00,,---,0.01,VWS V14.01,2013-02-06 02:31:00,
2013-02-05 20:36:00,67.8,66.9,29.94,East,94,5.0,8.0,97,0.00,,---,0.01,VWS V14.01,2013-02-06 02:36:00,
2013-02-05 20:41:00,67.8,66.9,29.94,ESE,110,5.0,8.0,97,0.00,,---,0.01,VWS V14.01,2013-02-06 02:41:00,
2013-02-05 20:46:00,67.8,66.9,29.94,ESE,107,6.0,9.0,97,0.00,,---,0.01,VWS V14.01,2013-02-06 02:46:00,
2013-02-05 20:51:00,67.7,66.8,29.95,SE,126,4.0,9.0,97,0.00,,---,0.01,VWS V14.01,2013-02-06 02:51:00,
2013-02-05 20:56:00,67.7,66.8,29.95,SE,124,3.0,9.0,97,0.00,,---,0.01,VWS V14.01,2013-02-06 02:56:00,
2013-02-05 21:01:00,67.6,66.7,29.95,SSW,197,3.0,9.0,97,0.00,,---,0.01,VWS V14.01,2013-02-06 03:01:00,
2013-02-05 21:06:00,67.6,66.7,29.95,ESE,110,4.0,8.0,97,0.00,,---,0.01,VWS V14.01,2013-02-06 03:06:00,
2013-02-05 21:11:00,67.5,66.6,29.95,ESE,107,5.0,8.0,97,0.00,,---,0.01,VWS V14.01,2013-02-06 03:11:00,
2013-02-05 21:16:00,67.5,66.6,29.95,ESE,122,4.0,8.0,97,0.00,,---,0.01,VWS V14.01,2013-02-06 03:16:00,
2013-02-05 21:21:00,67.5,66.6,29.95,SE,143,3.0,9.0,97,0.00,,---,0.01,VWS V14.01,2013-02-06 03:21:00,
2013-02-05 21:26:00,67.4,66.5,29.96,SSE,160,3.0,9.0,97,0.00,,---,0.01,VWS V14.01,2013-02-06 03:26:00,
2013-02-05 21:31:00,67.4,66.5,29.96,ESE,123,5.0,9.0,97,0.00,,---,0.01,VWS V14.01,2013-02-06 03:31:00,
2013-02-05 21:36:00,67.4,66.5,29.96,ESE,122,5.0,9.0,97,0.00,,---,0.01,VWS V14.01,2013-02-06 03:36:00,
2013-02-05 21:41:00,67.3,66.4,29.96,ESE,111,3.0,10.0,97,0.00,,---,0.01,VWS V14.01,2013-02-06 03:41:00,
2013-02-05 21:46:00,67.3,66.4,29.96,SSE,149,4.0,10.0,97,0.00,,---,0.01,VWS V14.01,2013-02-06 03:46:00,
2013-02-05 21:51:00,67.3,66.4,29.96,East,97,3.0,10.0,97,0.00,,---,0.01,VWS V14.01,2013-02-06 03:51:00,
2013-02-05 21:56:00,67.3,66.4,29.96,ESE,117,4.0,10.0,97,0.00,,---,0.01,VWS V14.01,2013-02-06 03:56:00,
2013-02-05 22:01:00,67.2,66.3,29.96,ESE,108,5.0,10.0,97,0.00,,---,0.01,VWS V14.01,2013-02-06 04:01:00,
2013-02-05 22:06:00,67.2,66.3,29.95,ESE,102,4.0,8.0,97,0.00,,---,0.01,VWS V14.01,2013-02-06 04:06:00,
2013-02-05 22:11:00,67.2,66.3,29.95,ESE,103,6.0,9.0,97,0.00,,---,0.01,VWS V14.01,2013-02-06 04:11:00,
2013-02-05 22:16:00,67.2,66.3,29.95,ESE,107,5.0,9.0,97,0.00,,---,0.01,VWS V14.01,2013-02-06 04:16:00,
2013-02-05 22:21:00,67.1,66.2,29.95,ESE,115,6.0,9.0,97,0.00,,---,0.01,VWS V14.01,2013-02-06 04:21:00,
2013-02-05 22:26:00,67.1,66.2,29.95,ESE,111,3.0,9.0,97,0.00,,---,0.01,VWS V14.01,2013-02-06 04:26:00,
2013-02-05 22:31:00,67.1,66.2,29.95,ESE,122,4.0,9.0,97,0.00,,---,0.01,VWS V14.01,2013-02-06 04:31:00,
2013-02-05 22:36:00,67.1,66.2,29.95,ESE,120,5.0,10.0,97,0.00,,---,0.01,VWS V14.01,2013-02-06 04:36:00,
2013-02-05 22:41:00,67.1,66.2,29.95,ESE,118,6.0,10.0,97,0.00,,---,0.01,VWS V14.01,2013-02-06 04:41:00,
2013-02-05 22:46:00,67.1,66.2,29.95,ESE,109,5.0,10.0,97,0.00,,---,0.01,VWS V14.01,2013-02-06 04:46:00,
2013-02-05 22:51:00,67.0,66.1,29.95,ESE,108,5.0,10.0,97,0.00,,---,0.01,VWS V14.01,2013-02-06 04:51:00,
2013-02-05 22:56:00,67.0,66.1,29.95,ESE,110,6.0,10.0,97,0.01,,---,0.02,VWS V14.01,2013-02-06 04:56:00,
2013-02-05 23:00:00,67.0,66.1,29.95,ESE,110,8.0,10.0,97,0.01,,---,0.02,VWS V14.01,2013-02-06 05:00:00,
2013-02-05 23:05:00,67.0,66.1,29.95,SE,131,5.0,8.0,97,0.01,,---,0.02,VWS V14.01,2013-02-06 05:05:00,
2013-02-05 23:10:00,67.1,66.2,29.96,ESE,112,7.0,8.0,97,0.01,,---,0.02,VWS V14.01,2013-02-06 05:10:00,
2013-02-05 23:15:00,67.0,66.1,29.95,ESE,108,6.0,9.0,97,0.01,,---,0.02,VWS V14.01,2013-02-06 05:15:00,
2013-02-05 23:20:00,66.9,66.0,29.95,ESE,117,4.0,9.0,97,0.01,,---,0.02,VWS V14.01,2013-02-06 05:20:00,
2013-02-05 23:25:00,66.9,66.3,29.95,ESE,109,6.0,10.0,98,0.01,,---,0.02,VWS V14.01,2013-02-06 05:25:00,
2013-02-05 23:30:00,66.9,66.3,29.95,SE,124,5.0,10.0,98,0.01,,---,0.02,VWS V14.01,2013-02-06 05:30:00,
2013-02-05 23:35:00,66.9,66.0,29.95,ESE,115,7.0,10.0,97,0.01,,---,0.02,VWS V14.01,2013-02-06 05:35:00,
2013-02-05 23:40:00,66.9,66.3,29.95,SE,127,4.0,10.0,98,0.01,,---,0.02,VWS V14.01,2013-02-06 05:40:00,
2013-02-05 23:45:00,67.0,66.4,29.95,ESE,112,4.0,10.0,98,0.01,,---,0.02,VWS V14.01,2013-02-06 05:45:00,
2013-02-05 23:50:00,66.9,66.3,29.95,ESE,102,6.0,10.0,98,0.01,,---,0.02,VWS V14.01,2013-02-06 05:50:00,
2013-02-05 23:55:00,66.9,66.3,29.94,ESE,122,5.0,10.0,98,0.01,,---,0.02,VWS V14.01,2013-02-06 05:55:00,